Regional Weather Roundup
Issued by NWS Kansas City/Pleasant Hill, MO

Home | Current Version | Previous Version | Text Only | Print | Product List | Glossary On
Versions: 1 2 3 4 5 6 7 8 9 10 11 12 13 14 15 16 17 18 19 20 21 22 23 24 25 26 27 28 29 30 31 32 33 34 35 36 37 38 39 40 41 42 43 44 45 46 47 48 49
732
ASUS43 KEAX 231810
RWREAX

WEATHER ROUNDUP FOR EASTERN KANSAS AND NORTHWEST MISSOURI
NATIONAL WEATHER SERVICE KANSAS CITY/PLEASANT HILL MO
100 PM CDT MON MAY 23 2016

KSZ040-057-103>105-MOZ028-029-037-043-231900-
...KANSAS CITY METROPOLITAN AREA...

CITY           SKY/WX    TMP DP  RH WIND       PRES   REMARKS
K.C. INTL      CLOUDY    65  61  87 SE16      29.91R THUNDER
6HR MIN TEMP:  65; 6HR MAX TEMP:  70; 6HR PCP:  0.04;

K.C. DOWNTOWN  TSTM      64  62  93 SW8       29.91S VSB 1
6HR MIN TEMP:  64; 6HR MAX TEMP:  72; 6HR PCP:  1.61;

LEES SUMMIT    CLOUDY    74  60  61 S9        29.91R
6HR MIN TEMP:  63; 6HR MAX TEMP:  75;

OLATHE - IXD   CLOUDY    65  62  90 S6        29.93R
6HR MIN TEMP:  63; 6HR MAX TEMP:  72; 6HR PCP:  0.12;

OLATHE - OJC   TSTM      64  61  90 MISG      29.94R VSB 1/2
6HR MIN TEMP:  61; 6HR MAX TEMP:  68; 6HR PCP:  0.66;

LAWRENCE       TSTM      66  62  87 S10       29.91R

$$

MOZ001>008-011>017-020>025-030>033-038>040-044>046-053-054-231900-
...NORTHERN AND CENTRAL MISSOURI...

CITY           SKY/WX    TMP DP  RH WIND       PRES   REMARKS
ST. JOSEPH     CLOUDY    69  62  78 SE15      29.89S
6HR MIN TEMP:  64; 6HR MAX TEMP:  70; 6HR PCP:  0.10;

MOSBY          CLOUDY    70  59  68 W6        29.91R THUNDER
WARRENSBURG    PTSUNNY   77  59  53 SE14G20   29.91F
WHITEMAN AFB   PTSUNNY   77  59  52 S16       29.92S
6HR MIN TEMP:  62; 6HR MAX TEMP:  77;

CLINTON        CLOUDY    77  59  53 SE10      29.93S
SEDALIA        MOSUNNY   77  57  50 S15       29.95F
6HR MIN TEMP:  61; 6HR MAX TEMP:  78;

WARSAW         NOT AVBL
CHILLICOTHE      N/A     79  58  48 S9        29.91F
6HR MIN TEMP:  63; 6HR MAX TEMP:  80;

KIRKSVILLE     SUNNY     79  56  45 S13G18    29.94F
6HR MIN TEMP:  61; 6HR MAX TEMP:  79;


$$

MOZ041-047>049-056>058-063>065-088>090-097-231900-
...EASTERN AND SOUTHERN MISSOURI...

CITY           SKY/WX    TMP DP  RH WIND       PRES   REMARKS
ST. LOUIS INTL PTSUNNY   82  48  30 SE13      29.98F
6HR MIN TEMP:  61; 6HR MAX TEMP:  82;

SPIRIT OF STL  MOSUNNY   81  50  33 SE9       29.97F
COLUMBIA       CLOUDY    78  53  41 S15       29.96F
JEFFERSON CITY CLOUDY    79  50  36 S13       29.95F
ROLLA          CLOUDY    75  54  47 SE16      29.97F
SPRINGFIELD    MOSUNNY   76  55  48 SE18G25   29.93F
BRANSON        PTSUNNY   75  55  50 S21G29    29.96F
JOPLIN         CLOUDY    74  59  59 S15       29.91F
WEST PLAINS    CLOUDY    76  49  38 S14       30.02F

$$

IAZ060-094-KSZ022-034>040-054-083-096-NEZ052-066-093-231900-
...KANSAS...SOUTHEAST NEBRASKA AND IOWA...

CITY           SKY/WX    TMP DP  RH WIND       PRES   REMARKS
TOPEKA         LGT RAIN  68  62  81 S9        29.89S
6HR MIN TEMP:  66; 6HR MAX TEMP:  73; 6HR PCP:  0.13;

MANHATTAN      CLOUDY    68  63  84 S13       29.77F
EMPORIA        TSTM      63  61  93 SW15      29.92F FOG
CHANUTE        CLOUDY    68  62  81 S9        29.90R
WICHITA        CLOUDY    63  61  93 SE8       29.88F THUNDER
OMAHA          TSTM      69  66  90 E13       29.77F
LINCOLN        PTSUNNY   74  67  78 S9        29.79S
FALLS CITY     CLOUDY    75  63  66 S10       29.83F
LAMONI         CLOUDY    71  59  65 S13       29.90F
DES MOINES     CLOUDY    75  59  57 S23       29.88S

$$





USA.gov is the U.S. government's official web portal to all federal, state and local government web resources and services.